| time (UTC) | temp F | wind direction | speed MPH | gust MPH | rain 1hr in | rain 24hr in | rain mn in | humidity % | barometer mb |
| 20260510081445 | 75 | 180 | 0.0 | 1.0 | 0.00 | 0.00 | 0.00 | 99 | 1008.9 |
| 20260510080941 | 75 | 187 | 1.0 | 1.0 | 0.00 | 0.00 | 0.00 | 99 | 1009.0 |
| 20260510080440 | 75 | 172 | 1.0 | 2.0 | 0.00 | 0.00 | 0.00 | 99 | 1009.2 |
| 20260510075937 | 75 | 177 | 1.0 | 2.0 | 0.00 | 0.00 | 0.00 | 99 | 1009.0 |
| 20260510075435 | 75 | 179 | 1.0 | 1.0 | 0.00 | 0.00 | 0.00 | 99 | 1008.9 |
| 20260510074931 | 75 | 194 | 3.0 | 5.0 | 0.00 | 0.00 | 0.00 | 99 | 1008.9 |
| 20260510074429 | 75 | 148 | 3.0 | 5.0 | 0.00 | 0.00 | 0.00 | 99 | 1008.9 |
| 20260510073925 | 75 | 173 | 1.0 | 2.0 | 0.00 | 0.00 | 0.00 | 99 | 1009.0 |
| 20260510073420 | 75 | 155 | 0.0 | 1.0 | 0.00 | 0.00 | 0.00 | 99 | 1008.9 |
| 20260510072917 | 75 | 166 | 1.0 | 1.0 | 0.00 | 0.00 | 0.00 | 99 | 1008.9 |
| 20260510072414 | 75 | 103 | 1.0 | 1.0 | 0.00 | 0.00 | 0.00 | 99 | 1008.8 |
| 20260510071909 | 75 | 182 | 2.0 | 2.0 | 0.00 | 0.00 | 0.00 | 99 | 1008.9 |
| 20260510071406 | 75 | 156 | 2.0 | 2.0 | 0.00 | 0.00 | 0.00 | 99 | 1008.9 |
| 20260510070905 | 75 | 172 | 3.0 | 5.0 | 0.00 | 0.00 | 0.00 | 99 | 1008.9 |
| 20260510070401 | 75 | 173 | 2.0 | 2.0 | 0.00 | 0.00 | 0.00 | 99 | 1009.0 |
| 20260510065856 | 75 | 168 | 1.0 | 2.0 | 0.00 | 0.00 | 0.00 | 99 | 1008.8 |
| 20260510065353 | 75 | 169 | 3.0 | 5.0 | 0.00 | 0.00 | 0.00 | 99 | 1009.2 |
| 20260510064850 | 75 | 188 | 3.0 | 3.0 | 0.00 | 0.00 | 0.00 | 99 | 1009.2 |
| 20260510064348 | 75 | 159 | 2.0 | 3.0 | 0.00 | 0.00 | 0.00 | 99 | 1009.1 |
| 20260510063844 | 75 | 164 | 2.0 | 2.0 | 0.00 | 0.00 | 0.00 | 99 | 1009.3 |
| 20260510063340 | 75 | 192 | 2.0 | 2.0 | 0.00 | 0.00 | 0.00 | 99 | 1009.3 |
| 20260510062837 | 75 | 169 | 2.0 | 2.0 | 0.00 | 0.00 | 0.00 | 99 | 1009.5 |
| 20260510062332 | 75 | 195 | 3.0 | 5.0 | 0.00 | 0.00 | 0.00 | 99 | 1009.5 |
| 20260510061828 | 75 | 160 | 1.0 | 1.0 | 0.00 | 0.00 | 0.00 | 99 | 1009.5 |
| 20260510061325 | 75 | 154 | 0.0 | 1.0 | 0.00 | 0.00 | 0.00 | 98 | 1009.7 |
| 20260510060821 | 75 | 188 | 3.0 | 3.0 | 0.00 | 0.00 | 0.00 | 98 | 1009.6 |
| 20260510060318 | 75 | 158 | 1.0 | 2.0 | 0.00 | 0.00 | 0.00 | 98 | 1009.5 |
| 20260510055815 | 75 | 177 | 1.0 | 1.0 | 0.00 | 0.00 | 0.00 | 98 | 1009.6 |
| 20260510055314 | 75 | 178 | 3.0 | 3.0 | 0.00 | 0.00 | 0.00 | 97 | 1009.4 |
| 20260510054813 | 75 | 158 | 1.0 | 1.0 | 0.00 | 0.00 | 0.00 | 97 | 1009.6 |
| 20260510054309 | 75 | 169 | 1.0 | 1.0 | 0.00 | 0.00 | 0.00 | 97 | 1009.6 |
| 20260510053809 | 75 | 156 | 3.0 | 3.0 | 0.00 | 0.00 | 0.00 | 96 | 1009.7 |
| 20260510053300 | 75 | 154 | 3.0 | 3.0 | 0.00 | 0.00 | 0.00 | 96 | 1009.7 |
| 20260510052756 | 75 | 122 | 2.0 | 2.0 | 0.00 | 0.00 | 0.00 | 96 | 1009.8 |
| 20260510052252 | 76 | 160 | 1.0 | 1.0 | 0.00 | 0.00 | 0.00 | 96 | 1009.9 |
| 20260510051748 | 76 | 151 | 3.0 | 5.0 | 0.00 | 0.00 | 0.00 | 96 | 1010.0 |
| 20260510051245 | 76 | 169 | 2.0 | 2.0 | 0.00 | 0.00 | 0.00 | 96 | 1009.7 |
| 20260510050742 | 76 | 128 | 2.0 | 3.0 | 0.00 | 0.00 | 0.00 | 97 | 1009.9 |
| 20260510050239 | 76 | 186 | 4.0 | 6.0 | 0.00 | 0.00 | 0.00 | 97 | 1009.9 |
| 20260510045736 | 76 | 170 | 2.0 | 3.0 | 0.00 | 0.00 | 0.00 | 97 | 1010.1 |
| 20260510045232 | 76 | 189 | 5.0 | 7.0 | 0.00 | 0.00 | 0.00 | 97 | 1010.1 |
| 20260510044729 | 76 | 149 | 3.0 | 3.0 | 0.00 | 0.00 | 0.00 | 98 | 1010.0 |
| 20260510044227 | 76 | 159 | 3.0 | 3.0 | 0.00 | 0.00 | 0.00 | 98 | 1010.0 |
| 20260510043721 | 76 | 96 | 6.0 | 8.0 | 0.00 | 0.00 | 0.00 | 98 | 1010.2 |
| 20260510043219 | 76 | 122 | 0.0 | 1.0 | 0.00 | 0.00 | 0.00 | 98 | 1010.4 |
| 20260510042716 | 76 | 108 | 0.0 | 0.0 | 0.00 | 0.00 | 0.00 | 98 | 1010.3 |
| 20260510042212 | 76 | 143 | 1.0 | 1.0 | 0.00 | 0.00 | 0.00 | 98 | 1010.1 |
| 20260510041709 | 76 | 148 | 3.0 | 5.0 | 0.00 | 0.00 | 0.00 | 98 | 1010.2 |
| 20260510041206 | 76 | 141 | 3.0 | 5.0 | 0.00 | 0.00 | 0.00 | 98 | 1010.3 |
| 20260510040703 | 76 | 150 | 3.0 | 3.0 | 0.00 | 0.00 | 0.00 | 98 | 1010.4 |
| 20260510040200 | 76 | 125 | 2.0 | 2.0 | 0.00 | 0.00 | 0.00 | 98 | 1010.2 |
| 20260510035655 | 76 | 133 | 4.0 | 6.0 | 0.00 | 0.00 | 0.00 | 98 | 1010.0 |
| 20260510035151 | 76 | 169 | 2.0 | 3.0 | 0.00 | 0.00 | 0.00 | 98 | 1010.0 |
| 20260510034647 | 76 | 129 | 3.0 | 3.0 | 0.00 | 0.00 | 0.00 | 98 | 1010.1 |
| 20260510034145 | 76 | 171 | 2.0 | 2.0 | 0.00 | 0.00 | 0.00 | 98 | 1010.1 |
| 20260510033641 | 77 | 147 | 1.0 | 1.0 | 0.00 | 0.00 | 0.00 | 98 | 1010.1 |
| 20260510033139 | 77 | 57 | 1.0 | 1.0 | 0.00 | 0.00 | 0.00 | 98 | 1010.0 |
| 20260510032635 | 76 | 144 | 1.0 | 1.0 | 0.00 | 0.00 | 0.00 | 98 | 1010.2 |
| 20260510032131 | 76 | 145 | 0.0 | 0.0 | 0.00 | 0.00 | 0.00 | 97 | 1010.2 |
| 20260510031626 | 76 | 131 | 1.0 | 2.0 | 0.00 | 0.00 | 0.00 | 97 | 1010.0 |
| 20260510031123 | 76 | 144 | 1.0 | 2.0 | 0.00 | 0.00 | 0.00 | 97 | 1010.0 |
| 20260510030617 | 75 | 130 | 0.0 | 1.0 | 0.00 | 0.00 | 0.00 | 97 | 1009.9 |
| 20260510030115 | 75 | 158 | 0.0 | 0.0 | 0.00 | 0.00 | 0.00 | 96 | 1009.7 |
| 20260510025612 | 75 | 147 | 0.0 | 0.0 | 0.00 | 0.00 | 0.00 | 96 | 1009.6 |
| 20260510025109 | 76 | 157 | 1.0 | 1.0 | 0.00 | 0.00 | 0.00 | 96 | 1009.6 |
| 20260510024606 | 76 | 151 | 1.0 | 1.0 | 0.00 | 0.00 | 0.00 | 96 | 1009.4 |
| 20260510024102 | 76 | 166 | 0.0 | 1.0 | 0.00 | 0.00 | 0.00 | 96 | 1009.5 |
| 20260510023559 | 76 | 154 | 0.0 | 0.0 | 0.00 | 0.00 | 0.00 | 96 | 1009.4 |
| 20260510023056 | 76 | 163 | 0.0 | 1.0 | 0.00 | 0.00 | 0.00 | 96 | 1009.6 |
| 20260510022555 | 76 | 117 | 1.0 | 1.0 | 0.00 | 0.00 | 0.00 | 96 | 1009.4 |
| 20260510022050 | 76 | 140 | 1.0 | 1.0 | 0.00 | 0.00 | 0.00 | 96 | 1009.0 |
| 20260510021546 | 76 | 55 | 1.0 | 1.0 | 0.00 | 0.00 | 0.00 | 96 | 1008.8 |
| 20260510021044 | 76 | 137 | 2.0 | 2.0 | 0.00 | 0.00 | 0.00 | 96 | 1008.7 |
| 20260510020538 | 76 | 162 | 1.0 | 2.0 | 0.00 | 0.00 | 0.00 | 96 | 1008.4 |
| 20260510020034 | 76 | 167 | 1.0 | 1.0 | 0.00 | 0.00 | 0.00 | 96 | 1008.4 |
| 20260510015530 | 76 | 150 | 0.0 | 0.0 | 0.00 | 0.00 | 0.00 | 96 | 1008.4 |
| 20260510015026 | 76 | 164 | 1.0 | 2.0 | 0.00 | 0.00 | 0.00 | 96 | 1008.2 |
| 20260510014523 | 77 | 164 | 1.0 | 1.0 | 0.00 | 0.00 | 0.00 | 95 | 1008.0 |
| 20260510014020 | 76 | 146 | 0.0 | 0.0 | 0.00 | 0.00 | 0.00 | 95 | 1008.1 |
| 20260510013514 | 77 | 148 | 0.0 | 0.0 | 0.00 | 0.00 | 0.00 | 94 | 1008.1 |
| 20260510013010 | 77 | 136 | 0.0 | 1.0 | 0.00 | 0.00 | 0.00 | 94 | 1007.9 |
| 20260510012505 | 77 | 144 | 0.0 | 0.0 | 0.00 | 0.00 | 0.00 | 94 | 1007.7 |
| 20260510012001 | 77 | 124 | 0.0 | 0.0 | 0.00 | 0.00 | 0.00 | 94 | 1007.3 |
| 20260510011455 | 77 | 149 | 2.0 | 2.0 | 0.00 | 0.00 | 0.00 | 94 | 1007.1 |
| 20260510010951 | 77 | 143 | 2.0 | 2.0 | 0.00 | 0.00 | 0.00 | 93 | 1006.9 |
| 20260510010449 | 77 | 164 | 1.0 | 1.0 | 0.00 | 0.00 | 0.00 | 93 | 1007.2 |
| 20260510005946 | 78 | 159 | 1.0 | 1.0 | 0.00 | 0.00 | 0.00 | 93 | 1007.3 |
| 20260510005441 | 78 | 128 | 1.0 | 1.0 | 0.00 | 0.00 | 0.00 | 93 | 1007.3 |
| 20260510004939 | 78 | 182 | 2.0 | 3.0 | 0.00 | 0.00 | 0.00 | 93 | 1007.3 |
| 20260510004436 | 78 | 184 | 1.0 | 2.0 | 0.00 | 0.00 | 0.00 | 92 | 1007.3 |
| 20260510003934 | 79 | 160 | 1.0 | 2.0 | 0.00 | 0.00 | 0.00 | 91 | 1007.4 |
| 20260510003431 | 79 | 149 | 2.0 | 2.0 | 0.00 | 0.00 | 0.00 | 90 | 1007.5 |
| 20260510002930 | 79 | 150 | 2.0 | 2.0 | 0.00 | 0.00 | 0.00 | 90 | 1007.2 |
| 20260510002427 | 79 | 151 | 4.0 | 6.0 | 0.00 | 0.00 | 0.00 | 89 | 1007.1 |
| 20260510001924 | 80 | 176 | 1.0 | 1.0 | 0.00 | 0.00 | 0.00 | 89 | 1007.4 |
| 20260510001421 | 80 | 169 | 1.0 | 2.0 | 0.00 | 0.00 | 0.00 | 88 | 1007.1 |
| 20260510000919 | 81 | 125 | 3.0 | 5.0 | 0.00 | 0.00 | 0.00 | 86 | 1007.0 |
| 20260510000415 | 82 | 156 | 1.0 | 2.0 | 0.00 | 0.00 | 0.00 | 86 | 1007.0 |
| 20260509235912 | 82 | 137 | 1.0 | 2.0 | 0.00 | 0.00 | 0.00 | 84 | 1007.0 |
| 20260509235409 | 83 | 96 | 3.0 | 5.0 | 0.00 | 0.00 | 0.00 | 81 | 1006.8 |
| 20260509234904 | 83 | 144 | 2.0 | 2.0 | 0.00 | 0.00 | 0.00 | 78 | 1006.7 |
| 20260509234402 | 84 | 151 | 2.0 | 2.0 | 0.00 | 0.00 | 0.00 | 75 | 1006.5 |
| 20260509233859 | 84 | 166 | 2.0 | 2.0 | 0.00 | 0.00 | 0.00 | 73 | 1006.7 |
| 20260509233357 | 84 | 141 | 4.0 | 6.0 | 0.00 | 0.00 | 0.00 | 72 | 1006.7 |
| 20260509232852 | 85 | 167 | 2.0 | 3.0 | 0.00 | 0.00 | 0.00 | 74 | 1006.7 |
| 20260509232351 | 85 | 114 | 2.0 | 3.0 | 0.00 | 0.00 | 0.00 | 73 | 1006.6 |
| 20260509231846 | 85 | 174 | 2.0 | 2.0 | 0.00 | 0.00 | 0.00 | 74 | 1006.7 |
| 20260509231343 | 86 | 101 | 3.0 | 3.0 | 0.00 | 0.00 | 0.00 | 73 | 1006.7 |
| 20260509230841 | 86 | 152 | 1.0 | 1.0 | 0.00 | 0.00 | 0.00 | 73 | 1006.4 |
| 20260509230338 | 86 | 188 | 3.0 | 5.0 | 0.00 | 0.00 | 0.00 | 72 | 1006.6 |
| 20260509225833 | 86 | 134 | 2.0 | 2.0 | 0.00 | 0.00 | 0.00 | 73 | 1006.5 |
| 20260509225330 | 86 | 140 | 3.0 | 5.0 | 0.00 | 0.00 | 0.00 | 73 | 1006.6 |
| 20260509224826 | 87 | 137 | 2.0 | 3.0 | 0.00 | 0.00 | 0.00 | 74 | 1006.3 |
| 20260509224322 | 87 | 164 | 1.0 | 2.0 | 0.00 | 0.00 | 0.00 | 73 | 1006.5 |
| 20260509223819 | 88 | 148 | 4.0 | 5.0 | 0.00 | 0.00 | 0.00 | 68 | 1006.4 |
| 20260509223316 | 88 | 201 | 2.0 | 2.0 | 0.00 | 0.00 | 0.00 | 65 | 1006.3 |
| 20260509222813 | 88 | 193 | 3.0 | 3.0 | 0.00 | 0.00 | 0.00 | 67 | 1006.2 |
| 20260509222308 | 88 | 166 | 3.0 | 3.0 | 0.00 | 0.00 | 0.00 | 71 | 1006.3 |
| 20260509221804 | 88 | 162 | 2.0 | 2.0 | 0.00 | 0.00 | 0.00 | 69 | 1006.3 |
| 20260509221302 | 89 | 194 | 1.0 | 1.0 | 0.00 | 0.00 | 0.00 | 65 | 1006.0 |
| 20260509220756 | 89 | 168 | 2.0 | 3.0 | 0.00 | 0.00 | 0.00 | 60 | 1006.3 |
| 20260509220253 | 90 | 158 | 1.0 | 2.0 | 0.00 | 0.00 | 0.00 | 61 | 1006.0 |
| 20260509215748 | 90 | 202 | 3.0 | 3.0 | 0.00 | 0.00 | 0.00 | 57 | 1005.8 |
| 20260509215245 | 90 | 172 | 1.0 | 2.0 | 0.00 | 0.00 | 0.00 | 58 | 1006.0 |
| 20260509214742 | 90 | 39 | 0.0 | 1.0 | 0.00 | 0.00 | 0.00 | 59 | 1006.0 |
| 20260509214239 | 90 | 97 | 2.0 | 2.0 | 0.00 | 0.00 | 0.00 | 62 | 1006.0 |
| 20260509213736 | 90 | 183 | 1.0 | 2.0 | 0.00 | 0.00 | 0.00 | 67 | 1006.0 |
| 20260509213232 | 91 | 165 | 4.0 | 5.0 | 0.00 | 0.00 | 0.00 | 63 | 1006.0 |
| 20260509212730 | 90 | 196 | 1.0 | 1.0 | 0.00 | 0.00 | 0.00 | 66 | 1006.2 |
| 20260509212227 | 90 | 207 | 0.0 | 1.0 | 0.00 | 0.00 | 0.00 | 67 | 1006.1 |
| 20260509211722 | 89 | 169 | 3.0 | 3.0 | 0.00 | 0.00 | 0.00 | 69 | 1006.1 |
| 20260509211219 | 90 | 174 | 1.0 | 1.0 | 0.00 | 0.00 | 0.00 | 69 | 1005.9 |
| 20260509210715 | 90 | 152 | 1.0 | 1.0 | 0.00 | 0.00 | 0.00 | 68 | 1006.0 |
| 20260509210213 | 90 | 182 | 0.0 | 0.0 | 0.00 | 0.00 | 0.00 | 66 | 1006.0 |
| 20260509205713 | 90 | 217 | 1.0 | 1.0 | 0.00 | 0.00 | 0.00 | 68 | 1006.0 |
| 20260509205212 | 90 | 27 | 0.0 | 0.0 | 0.00 | 0.00 | 0.00 | 69 | 1006.2 |
| 20260509204709 | 91 | 239 | 0.0 | 0.0 | 0.00 | 0.00 | 0.00 | 68 | 1006.2 |
| 20260509204205 | 91 | 311 | 1.0 | 1.0 | 0.00 | 0.00 | 0.00 | 63 | 1006.2 |
| 20260509203701 | 89 | 331 | 0.0 | 0.0 | 0.00 | 0.00 | 0.00 | 64 | 1006.2 |
| 20260509203200 | 90 | 304 | 0.0 | 0.0 | 0.00 | 0.00 | 0.00 | 66 | 1006.4 |
| 20260509202655 | 90 | 221 | 0.0 | 1.0 | 0.00 | 0.00 | 0.00 | 66 | 1006.2 |
| 20260509202150 | 91 | 226 | 1.0 | 2.0 | 0.00 | 0.00 | 0.00 | 66 | 1006.5 |
| 20260509201646 | 89 | 224 | 0.0 | 0.0 | 0.00 | 0.00 | 0.00 | 67 | 1006.5 |
| 20260509201143 | 90 | 220 | 1.0 | 2.0 | 0.00 | 0.00 | 0.00 | 67 | 1006.5 |
| 20260509200639 | 90 | 197 | 1.0 | 1.0 | 0.00 | 0.00 | 0.00 | 67 | 1006.3 |
| 20260509200134 | 90 | 193 | 0.0 | 1.0 | 0.00 | 0.00 | 0.00 | 66 | 1006.6 |
| 20260509195630 | 90 | 220 | 0.0 | 1.0 | 0.00 | 0.00 | 0.00 | 67 | 1006.8 |
| 20260509195125 | 90 | 196 | 1.0 | 1.0 | 0.00 | 0.00 | 0.00 | 65 | 1006.7 |
| 20260509194625 | 91 | 156 | 2.0 | 2.0 | 0.00 | 0.00 | 0.00 | 65 | 1006.7 |
| 20260509194122 | 91 | 221 | 0.0 | 1.0 | 0.00 | 0.00 | 0.00 | 64 | 1007.0 |
| 20260509193618 | 91 | 260 | 1.0 | 2.0 | 0.00 | 0.00 | 0.00 | 67 | 1006.8 |
| 20260509193114 | 91 | 320 | 0.0 | 1.0 | 0.00 | 0.00 | 0.00 | 67 | 1006.9 |
| 20260509192611 | 91 | 153 | 0.0 | 0.0 | 0.00 | 0.00 | 0.00 | 70 | 1006.9 |
| 20260509192106 | 89 | 235 | 0.0 | 0.0 | 0.00 | 0.00 | 0.00 | 68 | 1006.8 |
| 20260509191601 | 89 | 223 | 2.0 | 2.0 | 0.00 | 0.00 | 0.00 | 69 | 1007.2 |
| 20260509191057 | 88 | 110 | 3.0 | 3.0 | 0.00 | 0.00 | 0.00 | 69 | 1006.9 |
| 20260509190554 | 88 | 269 | 1.0 | 1.0 | 0.00 | 0.00 | 0.00 | 73 | 1007.1 |
| 20260509190052 | 87 | 172 | 1.0 | 1.0 | 0.00 | 0.00 | 0.00 | 74 | 1007.1 |
| 20260509185549 | 88 | 2 | 3.0 | 6.0 | 0.00 | 0.00 | 0.00 | 76 | 1007.0 |
| 20260509185045 | 88 | 243 | 0.0 | 0.0 | 0.00 | 0.00 | 0.00 | 68 | 1007.1 |
| 20260509184543 | 85 | 234 | 0.0 | 0.0 | 0.00 | 0.00 | 0.00 | 70 | 1007.1 |
| 20260509184039 | 85 | 302 | 1.0 | 2.0 | 0.00 | 0.00 | 0.00 | 74 | 1007.3 |
| 20260509183535 | 86 | 323 | 2.0 | 3.0 | 0.00 | 0.00 | 0.00 | 77 | 1007.4 |
| 20260509183031 | 85 | 299 | 1.0 | 1.0 | 0.00 | 0.00 | 0.00 | 79 | 1007.4 |
| 20260509182527 | 84 | 102 | 1.0 | 2.0 | 0.00 | 0.00 | 0.00 | 81 | 1007.6 |
| 20260509182024 | 85 | 34 | 2.0 | 3.0 | 0.00 | 0.00 | 0.00 | 79 | 1007.6 |
| 20260509181523 | 85 | 26 | 2.0 | 3.0 | 0.00 | 0.00 | 0.00 | 80 | 1007.6 |
| 20260509181020 | 84 | 249 | 4.0 | 5.0 | 0.00 | 0.00 | 0.00 | 79 | 1007.7 |
| 20260509180515 | 82 | 321 | 2.0 | 2.0 | 0.00 | 0.00 | 0.00 | 82 | 1007.7 |
| 20260509180013 | 83 | 3 | 2.0 | 3.0 | 0.00 | 0.00 | 0.00 | 83 | 1007.8 |
| 20260509175508 | 83 | 9 | 0.0 | 1.0 | 0.00 | 0.00 | 0.00 | 84 | 1007.8 |
| 20260509175005 | 83 | 277 | 0.0 | 1.0 | 0.00 | 0.00 | 0.00 | 83 | 1008.1 |
| 20260509174502 | 82 | 314 | 0.0 | 0.0 | 0.00 | 0.00 | 0.00 | 85 | 1008.3 |
| 20260509173956 | 82 | 294 | 1.0 | 1.0 | 0.00 | 0.00 | 0.00 | 85 | 1008.4 |
| 20260509173451 | 83 | 291 | 0.0 | 1.0 | 0.00 | 0.00 | 0.00 | 87 | 1008.4 |
| 20260509172948 | 82 | 299 | 0.0 | 0.0 | 0.00 | 0.00 | 0.00 | 86 | 1008.5 |
| 20260509172445 | 82 | 247 | 1.0 | 2.0 | 0.00 | 0.00 | 0.00 | 86 | 1008.6 |
| 20260509171940 | 82 | 14 | 1.0 | 1.0 | 0.00 | 0.00 | 0.00 | 87 | 1008.3 |
| 20260509171436 | 81 | 230 | 3.0 | 3.0 | 0.00 | 0.00 | 0.00 | 87 | 1008.5 |
| 20260509170933 | 82 | 215 | 2.0 | 2.0 | 0.00 | 0.00 | 0.00 | 88 | 1008.2 |
| 20260509170429 | 82 | 176 | 3.0 | 3.0 | 0.00 | 0.00 | 0.00 | 88 | 1008.4 |
| 20260509165924 | 81 | 197 | 2.0 | 2.0 | 0.00 | 0.00 | 0.00 | 89 | 1008.5 |
| 20260509165419 | 82 | 245 | 2.0 | 3.0 | 0.00 | 0.00 | 0.00 | 89 | 1008.5 |
| 20260509164914 | 81 | 162 | 3.0 | 3.0 | 0.00 | 0.00 | 0.00 | 89 | 1008.4 |
| 20260509164411 | 81 | 170 | 1.0 | 2.0 | 0.00 | 0.00 | 0.00 | 90 | 1008.2 |
| 20260509163907 | 81 | 229 | 0.0 | 0.0 | 0.00 | 0.00 | 0.00 | 90 | 1008.6 |
| 20260509163404 | 81 | 164 | 2.0 | 2.0 | 0.00 | 0.00 | 0.00 | 91 | 1008.7 |
| 20260509162903 | 81 | 197 | 1.0 | 2.0 | 0.00 | 0.00 | 0.00 | 91 | 1008.7 |
| 20260509162402 | 81 | 218 | 1.0 | 1.0 | 0.00 | 0.00 | 0.00 | 92 | 1008.7 |
| 20260509161858 | 80 | 179 | 3.0 | 3.0 | 0.00 | 0.00 | 0.00 | 94 | 1008.2 |
| 20260509161354 | 79 | 156 | 2.0 | 2.0 | 0.00 | 0.00 | 0.00 | 95 | 1008.5 |
| 20260509160850 | 78 | 182 | 2.0 | 3.0 | 0.00 | 0.00 | 0.00 | 97 | 1008.5 |
| 20260509160346 | 78 | 236 | 2.0 | 3.0 | 0.00 | 0.00 | 0.00 | 98 | 1008.2 |
| 20260509155841 | 78 | 207 | 2.0 | 2.0 | 0.00 | 0.00 | 0.00 | 99 | 1008.3 |
| 20260509155338 | 78 | 176 | 4.0 | 5.0 | 0.00 | 0.00 | 0.00 | 99 | 1008.3 |
| 20260509154834 | 78 | 202 | 0.0 | 0.0 | 0.00 | 0.00 | 0.00 | 99 | 1008.7 |
| 20260509154331 | 78 | 182 | 0.0 | 0.0 | 0.00 | 0.00 | 0.00 | 99 | 1008.8 |
| 20260509153828 | 77 | 304 | 0.0 | 0.0 | 0.00 | 0.00 | 0.00 | 99 | 1008.7 |
| 20260509153324 | 77 | 282 | 0.0 | 0.0 | 0.00 | 0.00 | 0.00 | 99 | 1008.5 |
| 20260509152822 | 77 | 244 | 0.0 | 1.0 | 0.00 | 0.00 | 0.00 | 99 | 1008.7 |
| 20260509152317 | 77 | 204 | 0.0 | 1.0 | 0.00 | 0.00 | 0.00 | 99 | 1008.7 |
| 20260509151815 | 77 | 226 | 1.0 | 2.0 | 0.00 | 0.00 | 0.00 | 99 | 1008.5 |
| 20260509151311 | 76 | 157 | 1.0 | 2.0 | 0.00 | 0.00 | 0.00 | 99 | 1007.9 |
| 20260509150810 | 76 | 129 | 1.0 | 1.0 | 0.00 | 0.00 | 0.00 | 99 | 1007.7 |
| 20260509150307 | 76 | 142 | 2.0 | 2.0 | 0.00 | 0.00 | 0.00 | 99 | 1008.3 |
| 20260509145804 | 76 | 172 | 0.0 | 0.0 | 0.00 | 0.00 | 0.00 | 99 | 1008.6 |
| 20260509145306 | 76 | 178 | 0.0 | 0.0 | 0.00 | 0.00 | 0.00 | 99 | 1008.8 |
| 20260509144800 | 76 | 203 | 0.0 | 0.0 | 0.00 | 0.00 | 0.00 | 99 | 1008.9 |
| 20260509144257 | 76 | 198 | 0.0 | 0.0 | 0.00 | 0.00 | 0.00 | 99 | 1008.6 |
| 20260509143754 | 76 | 231 | 0.0 | 0.0 | 0.00 | 0.00 | 0.00 | 99 | 1008.6 |
| 20260509143252 | 76 | 230 | 1.0 | 1.0 | 0.00 | 0.00 | 0.00 | 99 | 1008.8 |
| 20260509142747 | 76 | 221 | 0.0 | 0.0 | 0.00 | 0.00 | 0.00 | 99 | 1008.7 |
| 20260509142244 | 76 | 179 | 0.0 | 0.0 | 0.00 | 0.00 | 0.00 | 99 | 1008.4 |
| 20260509141739 | 76 | 206 | 0.0 | 0.0 | 0.00 | 0.00 | 0.00 | 99 | 1008.6 |
| 20260509141237 | 76 | 217 | 0.0 | 1.0 | 0.00 | 0.00 | 0.00 | 99 | 1008.8 |
| 20260509140733 | 76 | 285 | 1.0 | 1.0 | 0.00 | 0.00 | 0.00 | 99 | 1008.9 |
| 20260509140231 | 76 | 224 | 0.0 | 0.0 | 0.00 | 0.00 | 0.00 | 99 | 1009.0 |
| 20260509135728 | 76 | 193 | 0.0 | 0.0 | 0.00 | 0.00 | 0.00 | 99 | 1008.5 |
| 20260509135226 | 76 | 188 | 0.0 | 0.0 | 0.00 | 0.00 | 0.00 | 99 | 1008.4 |
| 20260509134722 | 76 | 186 | 0.0 | 0.0 | 0.00 | 0.00 | 0.00 | 99 | 1008.3 |
| 20260509134220 | 76 | 208 | 0.0 | 0.0 | 0.00 | 0.00 | 0.00 | 99 | 1008.3 |
| 20260509133717 | 76 | 208 | 0.0 | 0.0 | 0.00 | 0.00 | 0.00 | 99 | 1008.5 |
| 20260509133214 | 76 | 204 | 0.0 | 0.0 | 0.00 | 0.00 | 0.00 | 99 | 1008.6 |
| 20260509132713 | 76 | 123 | 0.0 | 1.0 | 0.00 | 0.00 | 0.00 | 99 | 1008.3 |
| 20260509132211 | 76 | 212 | 0.0 | 1.0 | 0.00 | 0.00 | 0.00 | 99 | 1008.1 |
| 20260509131707 | 76 | 202 | 1.0 | 1.0 | 0.00 | 0.00 | 0.00 | 99 | 1008.1 |
| 20260509131204 | 75 | 211 | 1.0 | 1.0 | 0.00 | 0.00 | 0.00 | 99 | 1008.3 |
| 20260509130659 | 75 | 230 | 0.0 | 0.0 | 0.00 | 0.00 | 0.00 | 99 | 1008.7 |
| 20260509130155 | 75 | 276 | 0.0 | 0.0 | 0.00 | 0.00 | 0.00 | 99 | 1008.8 |
| 20260509125652 | 75 | 336 | 0.0 | 1.0 | 0.00 | 0.00 | 0.00 | 99 | 1008.8 |
| 20260509125149 | 75 | 257 | 0.0 | 0.0 | 0.00 | 0.00 | 0.00 | 99 | 1008.6 |
| 20260509124646 | 75 | 216 | 0.0 | 0.0 | 0.00 | 0.00 | 0.00 | 99 | 1008.4 |
| 20260509124142 | 75 | 235 | 0.0 | 0.0 | 0.00 | 0.00 | 0.00 | 99 | 1008.4 |
| 20260509123640 | 75 | 205 | 0.0 | 0.0 | 0.00 | 0.00 | 0.00 | 99 | 1008.5 |
| 20260509123137 | 75 | 199 | 0.0 | 0.0 | 0.00 | 0.00 | 0.00 | 99 | 1008.3 |
| 20260509122633 | 75 | 201 | 0.0 | 0.0 | 0.00 | 0.00 | 0.00 | 99 | 1008.5 |
| 20260509122130 | 75 | 279 | 0.0 | 0.0 | 0.00 | 0.00 | 0.00 | 99 | 1008.6 |
| 20260509121626 | 75 | 325 | 0.0 | 0.0 | 0.00 | 0.00 | 0.00 | 99 | 1008.6 |
| 20260509121125 | 75 | 215 | 0.0 | 0.0 | 0.00 | 0.00 | 0.00 | 99 | 1008.6 |
| 20260509120622 | 75 | 317 | 0.0 | 0.0 | 0.00 | 0.00 | 0.00 | 99 | 1008.5 |
| 20260509120120 | 75 | 328 | 0.0 | 0.0 | 0.00 | 0.00 | 0.00 | 99 | 1008.6 |
| 20260509115617 | 75 | 329 | 0.0 | 0.0 | 0.00 | 0.00 | 0.00 | 99 | 1008.6 |
| 20260509115115 | 75 | 336 | 0.0 | 1.0 | 0.00 | 0.00 | 0.00 | 99 | 1008.4 |
| 20260509114613 | 75 | 346 | 0.0 | 0.0 | 0.00 | 0.00 | 0.00 | 99 | 1008.5 |
| 20260509114112 | 75 | 14 | 1.0 | 1.0 | 0.00 | 0.00 | 0.00 | 99 | 1008.3 |
| 20260509113609 | 75 | 302 | 0.0 | 0.0 | 0.00 | 0.00 | 0.00 | 99 | 1008.5 |
| 20260509113107 | 75 | 272 | 0.0 | 0.0 | 0.00 | 0.00 | 0.00 | 99 | 1008.3 |
| 20260509112603 | 74 | 0 | 0.0 | 1.0 | 0.00 | 0.00 | 0.00 | 99 | 1008.1 |
| 20260509112100 | 74 | 340 | 0.0 | 0.0 | 0.00 | 0.00 | 0.00 | 99 | 1008.0 |
| 20260509111557 | 74 | 248 | 0.0 | 0.0 | 0.00 | 0.00 | 0.00 | 99 | 1008.0 |
| 20260509111054 | 74 | 235 | 0.0 | 0.0 | 0.00 | 0.00 | 0.00 | 99 | 1008.2 |
| 20260509110551 | 74 | 234 | 0.0 | 0.0 | 0.00 | 0.00 | 0.00 | 99 | 1008.2 |
| 20260509110048 | 74 | 297 | 0.0 | 0.0 | 0.00 | 0.00 | 0.00 | 99 | 1008.1 |
| 20260509105546 | 74 | 297 | 0.0 | 0.0 | 0.00 | 0.00 | 0.00 | 99 | 1007.9 |
| 20260509105044 | 74 | 338 | 0.0 | 0.0 | 0.00 | 0.00 | 0.00 | 99 | 1007.8 |
| 20260509104540 | 74 | 323 | 0.0 | 1.0 | 0.00 | 0.00 | 0.00 | 99 | 1007.5 |
| 20260509104037 | 74 | 290 | 1.0 | 1.0 | 0.00 | 0.00 | 0.00 | 99 | 1007.4 |
| 20260509103535 | 74 | 267 | 0.0 | 0.0 | 0.00 | 0.00 | 0.00 | 99 | 1007.6 |
| 20260509103033 | 75 | 267 | 0.0 | 0.0 | 0.00 | 0.00 | 0.00 | 99 | 1007.8 |
| 20260509102530 | 75 | 260 | 0.0 | 1.0 | 0.00 | 0.00 | 0.00 | 99 | 1007.9 |
| 20260509102027 | 74 | 181 | 0.0 | 0.0 | 0.00 | 0.00 | 0.00 | 99 | 1007.9 |
| 20260509101523 | 74 | 174 | 0.0 | 0.0 | 0.00 | 0.00 | 0.00 | 99 | 1007.7 |
| 20260509101020 | 75 | 14 | 0.0 | 1.0 | 0.00 | 0.00 | 0.00 | 99 | 1007.7 |
| 20260509100517 | 75 | 9 | 1.0 | 1.0 | 0.00 | 0.00 | 0.00 | 99 | 1007.8 |
| 20260509100015 | 75 | 358 | 1.0 | 1.0 | 0.00 | 0.00 | 0.00 | 99 | 1007.8 |
| 20260509095511 | 75 | 12 | 1.0 | 1.0 | 0.00 | 0.00 | 0.00 | 99 | 1007.6 |
| 20260509095009 | 75 | 299 | 0.0 | 0.0 | 0.00 | 0.00 | 0.00 | 99 | 1007.6 |
| 20260509094505 | 75 | 238 | 0.0 | 0.0 | 0.00 | 0.00 | 0.00 | 99 | 1007.5 |
| 20260509094002 | 75 | 238 | 0.0 | 0.0 | 0.00 | 0.00 | 0.00 | 99 | 1007.5 |
| 20260509093500 | 75 | 238 | 0.0 | 0.0 | 0.00 | 0.00 | 0.00 | 99 | 1007.5 |
| 20260509092957 | 75 | 240 | 0.0 | 0.0 | 0.00 | 0.00 | 0.00 | 99 | 1007.3 |
| 20260509092455 | 75 | 228 | 0.0 | 0.0 | 0.00 | 0.00 | 0.00 | 99 | 1007.2 |
| 20260509091954 | 75 | 347 | 0.0 | 0.0 | 0.00 | 0.00 | 0.00 | 99 | 1007.1 |
| 20260509091450 | 75 | 349 | 0.0 | 0.0 | 0.00 | 0.00 | 0.00 | 99 | 1007.0 |
| 20260509090947 | 75 | 183 | 0.0 | 0.0 | 0.00 | 0.00 | 0.00 | 99 | 1007.1 |
| 20260509090445 | 75 | 176 | 0.0 | 0.0 | 0.00 | 0.00 | 0.00 | 99 | 1006.9 |
| 20260509085942 | 74 | 166 | 0.0 | 1.0 | 0.00 | 0.00 | 0.00 | 99 | 1006.9 |
| 20260509085439 | 74 | 173 | 1.0 | 1.0 | 0.00 | 0.00 | 0.00 | 99 | 1006.8 |
| 20260509084935 | 74 | 141 | 0.0 | 0.0 | 0.00 | 0.00 | 0.00 | 99 | 1006.9 |
| 20260509084432 | 74 | 172 | 0.0 | 0.0 | 0.00 | 0.00 | 0.00 | 99 | 1007.1 |
| 20260509083930 | 73 | 146 | 0.0 | 1.0 | 0.00 | 0.00 | 0.00 | 99 | 1007.2 |
| 20260509083426 | 73 | 200 | 0.0 | 0.0 | 0.00 | 0.00 | 0.00 | 99 | 1007.3 |
| 20260509082923 | 73 | 198 | 0.0 | 0.0 | 0.00 | 0.00 | 0.00 | 99 | 1007.3 |
| 20260509082421 | 73 | 193 | 0.0 | 0.0 | 0.00 | 0.00 | 0.00 | 99 | 1007.4 |
| 20260509081917 | 73 | 188 | 1.0 | 1.0 | 0.00 | 0.00 | 0.00 | 99 | 1007.6 |